SIA606 RJBB-RJTT

Flight info

Callsign SIA606
Flight time 0h 46m
Altitude 37000
Route UPMIN DOPDA KEC Y43 MENUR Y21 AKSEL
Aircraft A359/H-SDE2E3GHIJ3J4J5LM1ORWXY/LB1D1

Departure

Time 2026-05-05 14:19
Airport Kansai International Airport (RJBB)

Arrival

Time 2026-05-05 15:05
Airport Tokyo Haneda International Airport (RJTT)
Time Latitude Longitude Altitude Speed Heading
2026-05-05 13:43 34.43832 135.25241 21 ft 0 kts 319°
2026-05-05 13:45 34.43822 135.25252 24 ft 2 kts 319°
2026-05-05 13:46 34.43809 135.25264 24 ft 2 kts 319°
2026-05-05 13:46 34.43798 135.25277 26 ft 2 kts 319°
2026-05-05 13:46 34.43786 135.25289 27 ft 2 kts 319°
2026-05-05 13:46 34.43774 135.25302 27 ft 2 kts 319°
2026-05-05 13:47 34.43763 135.25314 29 ft 0 kts 319°
2026-05-05 13:47 34.43764 135.25309 29 ft 2 kts 296°
2026-05-05 13:49 34.43760 135.25275 29 ft 6 kts 232°
2026-05-05 13:49 34.43702 135.25187 23 ft 21 kts 231°
2026-05-05 13:49 34.43585 135.25013 31 ft 32 kts 231°
2026-05-05 13:50 34.43418 135.24769 27 ft 43 kts 230°
2026-05-05 13:50 34.43209 135.24459 20 ft 52 kts 231°
2026-05-05 13:50 34.42968 135.24100 19 ft 55 kts 231°
2026-05-05 13:50 34.42772 135.23781 20 ft 26 kts 258°
2026-05-05 13:51 34.42781 135.23753 20 ft 5 kts 321°
2026-05-05 13:51 34.42874 135.23662 19 ft 29 kts 321°
2026-05-05 13:51 34.42931 135.23606 18 ft 36 kts 321°
2026-05-05 13:54 34.42945 135.23593 18 ft 37 kts 321°
2026-05-05 13:54 34.42970 135.23568 18 ft 24 kts 321°
2026-05-05 13:55 34.43012 135.23463 18 ft 23 kts 260°
2026-05-05 13:55 34.42978 135.23355 19 ft 10 kts 288°
2026-05-05 13:55 34.42980 135.23350 19 ft 11 kts 293°
2026-05-05 14:15 34.43045 135.23260 23 ft 24 kts 328°
2026-05-05 14:15 34.43222 135.23090 30 ft 41 kts 320°
2026-05-05 14:15 34.43481 135.22840 37 ft 56 kts 321°
2026-05-05 14:15 34.43811 135.22518 37 ft 56 kts 323°
2026-05-05 14:16 34.43986 135.22464 39 ft 25 kts 14°
2026-05-05 14:16 34.44104 135.22656 38 ft 39 kts 88°
2026-05-05 14:16 34.44227 135.23005 34 ft 54 kts 51°
2026-05-05 14:16 34.44493 135.23399 38 ft 66 kts 50°
2026-05-05 14:17 34.44804 135.23865 36 ft 76 kts 51°
2026-05-05 14:17 34.45007 135.24079 35 ft 21 kts 345°
2026-05-05 14:17 34.45093 135.23969 38 ft 14 kts 283°
2026-05-05 14:17 34.45058 135.23890 39 ft 13 kts 229°
2026-05-05 14:18 34.44977 135.23766 39 ft 24 kts 226°
2026-05-05 14:18 34.44737 135.23418 42 ft 89 kts 230°
2026-05-05 14:18 34.44198 135.22633 37 ft 151 kts 231°
2026-05-05 14:18 34.43435 135.21487 239 ft 186 kts 228°
2026-05-05 14:19 34.42567 135.20379 1141 ft 173 kts 218°
2026-05-05 14:19 34.41884 135.19161 1798 ft 188 kts 252°
2026-05-05 14:19 34.41878 135.17485 2186 ft 209 kts 272°
2026-05-05 14:19 34.41967 135.15697 2740 ft 215 kts 267°
2026-05-05 14:20 34.41926 135.13879 3402 ft 217 kts 263°
2026-05-05 14:20 34.41794 135.12047 3992 ft 220 kts 260°
2026-05-05 14:20 34.41609 135.10217 4579 ft 223 kts 259°
2026-05-05 14:20 34.41389 135.08333 5138 ft 228 kts 258°
2026-05-05 14:21 34.38798 135.02057 7011 ft 257 kts 226°
2026-05-05 14:21 34.31953 135.00138 10087 ft 270 kts 175°
2026-05-05 14:21 34.23474 135.01019 11445 ft 345 kts 172°
2026-05-05 14:21 34.13723 135.03812 13826 ft 371 kts 166°
2026-05-05 14:22 34.03489 135.06942 16267 ft 385 kts 168°
2026-05-05 14:22 33.92937 135.10499 18721 ft 404 kts 157°
2026-05-05 14:22 33.84464 135.20061 20676 ft 435 kts 133°
2026-05-05 14:22 33.76931 135.31671 22514 ft 456 kts 134°
2026-05-05 14:23 33.68807 135.43823 24339 ft 474 kts 136°
2026-05-05 14:23 33.60378 135.56344 26139 ft 488 kts 137°
2026-05-05 14:23 33.53180 135.67009 27596 ft 499 kts 137°
2026-05-05 14:23 33.46603 135.82244 29142 ft 551 kts 103°
2026-05-05 14:24 33.48791 136.00900 30451 ft 581 kts 78°
2026-05-05 14:24 33.52708 136.19904 31517 ft 593 kts 79°
2026-05-05 14:24 33.56462 136.39318 32887 ft 596 kts 79°
2026-05-05 14:24 33.60006 136.57857 34325 ft 594 kts 80°
2026-05-05 14:25 33.63831 136.77994 35552 ft 594 kts 79°
2026-05-05 14:25 33.67464 136.97315 36548 ft 595 kts 79°
2026-05-05 14:25 33.71030 137.16523 37254 ft 597 kts 79°
2026-05-05 14:25 33.74685 137.36283 37251 ft 597 kts 79°
2026-05-05 14:26 33.81737 137.75089 37253 ft 598 kts 79°
2026-05-05 14:26 33.88738 138.14230 37264 ft 598 kts 79°
2026-05-05 14:27 33.93529 138.33250 37265 ft 597 kts 62°
2026-05-05 14:27 33.95474 138.37842 37270 ft 598 kts 60°
2026-05-05 14:27 33.99413 138.46661 37279 ft 598 kts 59°
2026-05-05 14:28 34.03384 138.55457 37274 ft 598 kts 59°
2026-05-05 14:28 34.07298 138.64240 37278 ft 598 kts 60°
2026-05-05 14:29 34.11216 138.73120 37279 ft 599 kts 60°
2026-05-05 14:29 34.15126 138.82017 37282 ft 599 kts 60°
2026-05-05 14:30 34.19025 138.90904 37180 ft 600 kts 60°
2026-05-05 14:30 34.20978 138.95363 36923 ft 599 kts 60°
2026-05-05 14:30 34.22919 138.99806 36680 ft 598 kts 60°
2026-05-05 14:31 34.29301 139.15028 35834 ft 600 kts 65°
2026-05-05 14:31 34.35786 139.33635 33467 ft 601 kts 68°
2026-05-05 14:31 34.42190 139.52421 30270 ft 604 kts 66°
2026-05-05 14:31 34.49040 139.70321 27698 ft 575 kts 49°
2026-05-05 14:32 34.61364 139.81080 25573 ft 532 kts 26°
2026-05-05 14:32 34.72303 139.86531 23842 ft 491 kts
2026-05-05 14:32 34.85622 139.88287 21281 ft 471 kts
2026-05-05 14:32 34.98243 139.88483 19108 ft 442 kts 344°
2026-05-05 14:33 35.09846 139.84765 16868 ft 422 kts 344°
2026-05-05 14:33 35.21025 139.81214 14903 ft 401 kts 345°
2026-05-05 14:33 35.24580 139.80083 14751 ft 381 kts 345°
2026-05-05 14:33 35.30726 139.78558 14356 ft 352 kts
2026-05-05 14:34 35.34697 139.80758 14091 ft 329 kts 39°
2026-05-05 14:34 35.36438 139.82503 13937 ft 319 kts 40°
2026-05-05 14:34 35.38122 139.84208 13770 ft 309 kts 40°
2026-05-05 14:34 35.38270 139.84358 13765 ft 308 kts 40°
2026-05-05 14:35 35.39889 139.85981 13611 ft 299 kts 40°
2026-05-05 14:35 35.41481 139.87570 13403 ft 292 kts 40°
2026-05-05 14:35 35.43030 139.89113 13115 ft 289 kts 40°
2026-05-05 14:35 35.44520 139.90761 12783 ft 287 kts 45°
2026-05-05 14:36 35.45935 139.92475 12453 ft 285 kts 46°
2026-05-05 14:36 35.47336 139.94195 12139 ft 284 kts 46°
2026-05-05 14:36 35.48728 139.95903 11855 ft 281 kts 46°
2026-05-05 14:36 35.50101 139.97584 11602 ft 276 kts 45°
2026-05-05 14:37 35.51670 139.99505 11295 ft 272 kts 45°
2026-05-05 14:37 35.57194 139.98775 10463 ft 231 kts 284°
2026-05-05 14:37 35.62570 139.95690 9233 ft 267 kts 26°
2026-05-05 14:37 35.64932 139.97274 9002 ft 255 kts 27°
2026-05-05 14:38 35.66576 139.97940 8824 ft 245 kts
2026-05-05 14:38 35.68256 139.97986 8614 ft 239 kts 356°
2026-05-05 14:38 35.69912 139.97914 8343 ft 237 kts 356°
2026-05-05 14:38 35.71558 139.97835 8080 ft 235 kts 356°
2026-05-05 14:39 35.73185 139.97761 7791 ft 233 kts 356°
2026-05-05 14:39 35.74811 139.97690 7533 ft 232 kts 356°
2026-05-05 14:39 35.76407 139.97622 7283 ft 230 kts 356°
2026-05-05 14:39 35.77942 139.97315 6909 ft 230 kts 332°
2026-05-05 14:40 35.79048 139.95997 6595 ft 222 kts 292°
2026-05-05 14:40 35.79187 139.94141 6241 ft 215 kts 251°
2026-05-05 14:40 35.78336 139.92728 5896 ft 211 kts 210°
2026-05-05 14:40 35.76934 139.92396 5615 ft 208 kts 169°
2026-05-05 14:41 35.75734 139.93332 5359 ft 210 kts 127°
2026-05-05 14:41 35.75353 139.95065 5112 ft 218 kts 85°
2026-05-05 14:41 35.75877 139.96819 5019 ft 221 kts 66°
2026-05-05 14:41 35.76087 139.98648 4893 ft 215 kts 107°
2026-05-05 14:42 35.75332 140.00104 4758 ft 203 kts 149°
2026-05-05 14:42 35.74019 140.00505 4631 ft 196 kts 191°
2026-05-05 14:42 35.72898 139.99645 4560 ft 195 kts 234°
2026-05-05 14:42 35.72604 139.98098 4625 ft 183 kts 271°
2026-05-05 14:43 35.72796 139.96530 4599 ft 187 kts 278°
2026-05-05 14:43 35.73131 139.94974 4558 ft 189 kts 281°
2026-05-05 14:43 35.73384 139.93398 4559 ft 184 kts 274°
2026-05-05 14:43 35.73130 139.92004 4561 ft 162 kts 229°
2026-05-05 14:44 35.72347 139.91120 4561 ft 146 kts 215°
2026-05-05 14:44 35.71525 139.90405 4559 ft 143 kts 213°
2026-05-05 14:44 35.70707 139.89708 4552 ft 143 kts 213°
2026-05-05 14:44 35.69885 139.89005 4551 ft 144 kts 213°
2026-05-05 14:45 35.69340 139.88537 4498 ft 143 kts 213°
2026-05-05 14:45 35.68535 139.87844 4369 ft 138 kts 213°
2026-05-05 14:45 35.67500 139.86954 4208 ft 136 kts 213°
2026-05-05 14:45 35.66715 139.86280 4025 ft 140 kts 213°
2026-05-05 14:46 35.66178 139.85819 3820 ft 144 kts 213°
2026-05-05 14:46 35.65356 139.85112 3442 ft 144 kts 213°
2026-05-05 14:46 35.64539 139.84407 3058 ft 144 kts 212°
2026-05-05 14:46 35.63701 139.83686 2534 ft 150 kts 212°
2026-05-05 14:47 35.62834 139.82943 2009 ft 156 kts 212°
2026-05-05 14:47 35.61939 139.82174 1554 ft 155 kts 212°
2026-05-05 14:47 35.61063 139.81419 1153 ft 153 kts 212°
2026-05-05 14:47 35.60194 139.80656 813 ft 150 kts 213°
2026-05-05 14:48 35.60001 139.80431 746 ft 148 kts 223°
2026-05-05 14:48 35.59963 139.80375 734 ft 148 kts 226°
2026-05-05 14:48 35.59581 139.79250 585 ft 140 kts 252°
2026-05-05 14:49 35.59344 139.78143 581 ft 138 kts 251°
2026-05-05 14:49 35.59091 139.76940 738 ft 155 kts 252°
2026-05-05 14:49 35.59185 139.75507 873 ft 189 kts 290°
2026-05-05 14:49 35.60096 139.74254 1351 ft 209 kts 326°
2026-05-05 14:50 35.61436 139.73471 2119 ft 214 kts 335°
2026-05-05 14:50 35.62838 139.72826 2829 ft 218 kts 337°
2026-05-05 14:50 35.64267 139.72198 3570 ft 220 kts 337°
2026-05-05 14:50 35.65717 139.71566 4293 ft 221 kts 337°
2026-05-05 14:51 35.67157 139.70928 4834 ft 222 kts 337°
2026-05-05 14:51 35.68610 139.70270 5026 ft 222 kts 337°
2026-05-05 14:51 35.70071 139.69604 5054 ft 221 kts 337°
2026-05-05 14:51 35.71496 139.68949 5055 ft 221 kts 337°
2026-05-05 14:52 35.72947 139.68282 5048 ft 221 kts 337°
2026-05-05 14:52 35.74390 139.67619 5051 ft 221 kts 337°
2026-05-05 14:52 35.75832 139.66956 5049 ft 221 kts 337°
2026-05-05 14:52 35.77269 139.66296 5052 ft 221 kts 337°
2026-05-05 14:53 35.78704 139.65636 4840 ft 219 kts 337°
2026-05-05 14:53 35.80190 139.65256 4450 ft 225 kts
2026-05-05 14:53 35.81666 139.65852 4141 ft 226 kts 36°
2026-05-05 14:53 35.82629 139.67320 4058 ft 220 kts 71°
2026-05-05 14:54 35.82791 139.69147 4047 ft 212 kts 105°
2026-05-05 14:54 35.82498 139.70918 4051 ft 213 kts 102°
2026-05-05 14:54 35.82155 139.72696 4046 ft 213 kts 110°
2026-05-05 14:54 35.81753 139.74446 4048 ft 212 kts 110°
2026-05-05 14:55 35.81380 139.76214 4047 ft 213 kts 105°
2026-05-05 14:55 35.80902 139.77919 4044 ft 208 kts 128°
2026-05-05 14:55 35.79864 139.79034 3853 ft 198 kts 161°
2026-05-05 14:55 35.78567 139.79457 3617 ft 191 kts 173°
2026-05-05 14:56 35.77260 139.79439 3350 ft 187 kts 189°
2026-05-05 14:56 35.75962 139.79463 3006 ft 190 kts 165°
2026-05-05 14:56 35.74783 139.80192 2772 ft 190 kts 151°
2026-05-05 14:56 35.73700 139.81099 2495 ft 189 kts 149°
2026-05-05 14:57 35.72641 139.82024 2249 ft 187 kts 149°
2026-05-05 14:57 35.71596 139.82938 1981 ft 186 kts 149°
2026-05-05 14:57 35.70595 139.84002 1600 ft 193 kts 133°
2026-05-05 14:57 35.70110 139.85564 1269 ft 204 kts 97°
2026-05-05 14:58 35.70478 139.87287 962 ft 211 kts 61°
2026-05-05 14:58 35.71552 139.88452 773 ft 211 kts 25°
2026-05-05 14:58 35.72978 139.88682 927 ft 210 kts 348°
2026-05-05 14:58 35.74252 139.87902 1258 ft 215 kts 311°
2026-05-05 14:59 35.74972 139.86348 2040 ft 204 kts 278°
2026-05-05 14:59 35.75211 139.84640 2729 ft 199 kts 270°
2026-05-05 14:59 35.75364 139.83008 2804 ft 186 kts 269°
2026-05-05 14:59 35.75506 139.81399 2344 ft 196 kts 269°
2026-05-05 15:00 35.75635 139.79731 2065 ft 197 kts 268°
2026-05-05 15:00 35.75569 139.78620 2029 ft 193 kts 249°
2026-05-05 15:00 35.74647 139.76828 2030 ft 184 kts 214°
2026-05-05 15:00 35.73477 139.76353 2038 ft 181 kts 178°
2026-05-05 15:01 35.72280 139.76887 2058 ft 186 kts 149°
2026-05-05 15:01 35.71185 139.77748 2026 ft 187 kts 165°
2026-05-05 15:01 35.69938 139.77654 2061 ft 179 kts 202°
2026-05-05 15:01 35.68771 139.77085 2045 ft 181 kts 198°
2026-05-05 15:02 35.67547 139.76729 2050 ft 181 kts 188°
2026-05-05 15:02 35.66306 139.76486 2039 ft 181 kts 193°
2026-05-05 15:02 35.65122 139.76122 2031 ft 171 kts 192°
2026-05-05 15:02 35.64001 139.75913 2054 ft 154 kts 188°
2026-05-05 15:03 35.62971 139.75768 1820 ft 146 kts 185°
2026-05-05 15:03 35.61942 139.75716 1407 ft 147 kts 180°
2026-05-05 15:03 35.60953 139.75867 1146 ft 145 kts 169°
2026-05-05 15:03 35.59976 139.76270 805 ft 150 kts 159°
2026-05-05 15:04 35.59045 139.76849 564 ft 150 kts 149°
2026-05-05 15:04 35.58157 139.77533 470 ft 153 kts 153°
2026-05-05 15:04 35.57201 139.78201 222 ft 158 kts 153°
2026-05-05 15:04 35.56262 139.78849 31 ft 152 kts 158°
2026-05-05 15:05 35.55608 139.79339 30 ft 108 kts 151°
2026-05-05 15:05 35.55094 139.79748 30 ft 81 kts 150°
2026-05-05 15:05 35.54742 139.79911 30 ft 4 kts 166°
2026-05-05 15:06 35.54741 139.79911 30 ft 0 kts 166°